Location: Góry Miechowskie
(50.3599°N, 20.1803°E)
Time: 22:51:35
(UTC+00:00)

Vanguard 3 - Pass Details

Date: 22 September 2024
Orbit: 507 x 3224 km, 33.4° (Epoch: 02 October)

Event Time Altitude Azimuth Distance (km) Brightness Sun altitude
Exits shadow 01:14:24 - 173° (S) 5,270 11.0 -28.8°
Reaches altitude 10° 01:16:11 10° 166° (SSE) 5,143 10.9 -28.6°
Maximum altitude 01:24:49 17° 133° (SE) 5,124 11.2 -27.6°
Drops below altitude 10° 01:34:46 10° 101° (E) 6,096 12.1 -26.3°
Sets 01:42:15 0° 85° (E) 7,181 12.9 -25.3°
